World > North America > United States > Mississippi > Cadaretta  

Cadaretta, MS Hourly Weather Updates

Feedback E-mail the Weather

Quick Clicks

Cadaretta, MS Weather Maps

°F °C°F °C
Cadaretta Weather Map
UTC Time: 7/12/2024, 23:34
Your Time:

Cadaretta, MS Regional Weather

Expires:202407130000;;918118
ASUS44 KJAN 122310
RWRMS 

MISSISSIPPI HOURLY WEATHER ROUNDUP
NATIONAL WEATHER SERVICE JACKSON MS
600 PM CDT FRI JUL 12 2024

NOTE: "FAIR: INDICATES FEW OR NO CLOUDS BELOW 12,000 FEET WITH NO
SIGNIFICANT WEATHER AND/OR OBSTRUCTIONS TO VISIBILITY.


MSZ001>002-007>008-010>013-018>021-025>028-034>036-130000-
NORTHWEST MISSISSIPPI
  
CITY           SKY/WX    TMP DP  RH WIND       PRES   REMARKS
BATESVILLE     MOSUNNY   93  68  43 VRB5G12   30.05S HX  97           
CLARKSDALE       N/A     91 N/A N/A NW6       30.07F                  
CLEVELAND      SUNNY     89  73  58 NW7       30.06F HX  97           
GREENWOOD      SUNNY     93  70  46 VRB5      30.06R HX  99           
GREENVILLE     SUNNY     92  70  48 N5        30.05F HX  97           
OLIVE BRANCH   MOSUNNY   91  70  49 N7        30.07S HX  97           
OXFORD         MOSUNNY   91  64  40 NW10      30.08S HX  93           
TUNICA         SUNNY     91  72  53 VRB6      30.07S HX  98           
$$


SKY/WX - Weather  TMP - Temperature  DP - Dew Point  RH - Humidity
WIND - Wind Direction/Speed PRES - Barometric Pressure VSB - Visibility
WCI - Wind Chill Index E13G22 Wind - East Wind 13 mph/Gusts of 22 mph

Trending Headlines

Trending Entertainment Headlines

Cadaretta Radar Loop

Use the map search tool if you want to place a location marker on the radar map...

Cadaretta Quick Facts

National Two Day Weather Forecast


E-mail the Cadaretta Weather Forecast

Voice your opinion or tell us about page issues...